Nuiqsut, AK

3:20 AM AKDT on September 21, 2017 (GMT -0800)
Nuiqsut

Weather History for PAQT - January, 2014

Change the Weather History Date:

Thursday, January 30, 2014

  Actual Average (PAKU) Record (PAKU)
Temperature  
Mean Temperature 9 °F -  
Max Temperature 17 °F -12 °F 19 °F (2014)
Min Temperature 1 °F -21 °F -51 °F (1984)
Degree Days  
Heating Degree Days 56    
Moisture  
Dew Point 7 °F    
Average Humidity 97    
Maximum Humidity 100    
Minimum Humidity 91    
Precipitation  
Precipitation 0.00 in - - ()
Sea Level Pressure  
Sea Level Pressure 30.16 in    
Wind  
Wind Speed 10 mph (SSW)    
Max Wind Speed 14 mph    
Max Gust Speed -    
Visibility 5 miles    
Events Fog , Rain , Snow    
Averages and records for this station are not official NWS values.
T = Trace of Precipitation, MM = Missing Value Source: NWS Daily Summary

Daily Weather History Graph

Daily Weather History Graph

Search for Another Location

Airport or City:

Trip Planner

Search our weather history database for the weather conditions in past years. The results will help you decide how hot, cold, wet, or windy it might be!

Date:

Astronomy

Jan. 30, 2014 Rise Set
Actual Time 11:02 AM AKST 3:33 PM AKST
Civil Twilight 9:31 AM AKST 5:04 PM AKST
Nautical Twilight 8:11 AM AKST 6:24 PM AKST
Astronomical Twilight 6:59 AM AKST 7:36 PM AKST
Moon 9:50 AM AKST (1/30) 4:54 PM AKST (1/30)
Length of Visible Light 7h 32m
Length of Day
4h 31m
Waning Crescent, 0% of the Moon is Illuminated
Jan 30
Waning Crescent
Jan 30
New
Feb 6
First Quarter
Feb 14
Full
Feb 22
Last Quarter

Hourly Weather History & Observations

Time (AKST) Temp. Windchill Dew Point Humidity Pressure Visibility Wind Dir Wind Speed Gust Speed Precip Events Conditions
12:53 AM 12.0 °F -2.0 °F 12.0 °F 100% 30.09 in 0.5 mi SSW 11.5 mph - 0.00 in Fog Light Freezing Fog
1:03 AM 12.0 °F -2.0 °F 12.0 °F 100% 30.09 in 0.2 mi SSW 11.5 mph - 0.00 in Fog , Rain Light Freezing Rain
1:22 AM 12.0 °F -0.4 °F 12.0 °F 100% 30.10 in 0.2 mi SSW 9.2 mph - 0.00 in Fog Light Freezing Fog
1:53 AM 12.0 °F -1.3 °F 12.0 °F 100% 30.11 in 0.8 mi SSW 10.4 mph - 0.00 in   Overcast
2:53 AM 15.1 °F 2.5 °F 15.1 °F 100% 30.11 in 0.2 mi SSW 10.4 mph - 0.00 in Fog Light Freezing Fog
3:10 AM 14.0 °F 1.2 °F 14.0 °F 100% 30.11 in 0.5 mi SSW 10.4 mph - N/A Fog Light Freezing Fog
3:38 AM 16.0 °F 5.3 °F 16.0 °F 100% 30.11 in 0.2 mi SSW 8.1 mph - N/A Fog Light Freezing Fog
3:53 AM 16.0 °F 6.3 °F 16.0 °F 100% 30.12 in 0.2 mi SSW 6.9 mph - N/A Fog Light Freezing Fog
4:43 AM 17.1 °F 5.8 °F 17.1 °F 100% 30.12 in 0.5 mi SSW 9.2 mph - N/A Fog Light Freezing Fog
4:53 AM 17.1 °F 5.0 °F 17.1 °F 100% 30.13 in 1.0 mi SSW 10.4 mph - N/A   Overcast
5:04 AM 17.1 °F 5.8 °F 17.1 °F 100% 30.13 in 0.5 mi SSW 9.2 mph - N/A Fog Light Freezing Fog
5:37 AM 15.1 °F 3.3 °F 15.1 °F 100% 30.13 in 0.8 mi SSW 9.2 mph - N/A   Overcast
5:49 AM 15.8 °F 6.1 °F 15.8 °F 100% 30.14 in 2.0 mi South 6.9 mph - N/A   Overcast
5:53 AM 15.1 °F 4.2 °F 15.1 °F 100% 30.14 in 5.0 mi South 8.1 mph - N/A   Overcast
6:53 AM 9.0 °F -2.2 °F 9.0 °F 100% 30.15 in 7.0 mi South 6.9 mph - N/A   Overcast
7:50 AM 8.6 °F -6.3 °F 8.6 °F 100% 30.16 in 7.0 mi SSW 11.5 mph - N/A   Overcast
7:53 AM 9.0 °F -5.1 °F 8.1 °F 96% 30.16 in 7.0 mi SSW 10.4 mph - N/A   Overcast
8:05 AM 8.1 °F -7.0 °F 7.0 °F 95% 30.16 in 7.0 mi SSW 11.5 mph - N/A   Overcast
8:21 AM 7.0 °F -7.5 °F 6.1 °F 96% 30.16 in 7.0 mi SSW 10.4 mph - N/A   Scattered Clouds
8:53 AM 6.1 °F -4.3 °F 6.1 °F 100% 30.17 in 7.0 mi SSW 5.8 mph - N/A   Clear
9:19 AM 5.0 °F -5.6 °F 3.9 °F 95% 30.17 in 7.0 mi South 5.8 mph - N/A   Partly Cloudy
9:34 AM 3.9 °F -8.2 °F 3.0 °F 96% 30.17 in 7.0 mi South 6.9 mph - N/A   Mostly Cloudy
9:53 AM 5.0 °F -6.9 °F 3.9 °F 95% 30.18 in 7.0 mi South 6.9 mph - N/A   Overcast
10:35 AM 3.9 °F -9.4 °F 3.0 °F 96% 30.17 in 6.0 mi South 8.1 mph - N/A   Scattered Clouds
10:53 AM 1.9 °F -10.6 °F 1.0 °F 96% 30.18 in 5.0 mi South 6.9 mph - N/A   Clear
11:53 AM 1.9 °F -13.8 °F 1.0 °F 96% 30.19 in 6.0 mi South 10.4 mph - N/A   Clear
12:53 PM 1.9 °F -12.9 °F 1.0 °F 96% 30.20 in 6.0 mi South 9.2 mph - N/A   Clear
1:53 PM 3.9 °F -10.4 °F 1.9 °F 91% 30.20 in 6.0 mi South 9.2 mph - N/A   Clear
2:53 PM 3.9 °F -11.3 °F 3.0 °F 96% 30.19 in 6.0 mi SSW 10.4 mph - N/A   Clear
3:53 PM 3.9 °F -13.0 °F 3.0 °F 96% 30.20 in 5.0 mi SSW 12.7 mph - N/A Snow Blowing Snow
4:53 PM 3.0 °F -13.3 °F 1.9 °F 95% 30.20 in 7.0 mi South 11.5 mph - N/A   Clear
5:53 PM 3.9 °F -11.3 °F 3.0 °F 96% 30.20 in 7.0 mi South 10.4 mph - N/A   Clear
6:53 PM 1.9 °F -11.8 °F 1.0 °F 96% 30.21 in 7.0 mi SSW 8.1 mph - N/A   Clear
7:53 PM 3.0 °F -14.1 °F 1.0 °F 91% 30.20 in 8.0 mi South 12.7 mph - N/A   Clear
8:53 PM 1.9 °F -15.5 °F 1.0 °F 96% 30.19 in 8.0 mi South 12.7 mph - N/A   Clear
9:53 PM 1.9 °F -13.8 °F -0.0 °F 91% 30.19 in 8.0 mi South 10.4 mph - N/A   Clear
10:53 PM 1.0 °F -12.9 °F -0.9 °F 91% 30.20 in 8.0 mi South 8.1 mph - N/A   Clear
11:53 PM 1.9 °F -16.2 °F -0.0 °F 91% 30.20 in 8.0 mi SSW 13.8 mph - N/A   Clear